Regional Weather Roundup
Issued by NWS

Home | Current Version | Previous Version | Text Only | Print | Product List | Glossary Off
Versions: 1 2 3 4 5 6 7 8 9 10 11 12 13 14 15 16 17 18 19 20 21 22 23 24 25 26 27 28 29 30 31 32 33 34 35 36 37 38 39 40 41 42 43 44 45 46 47 48 49 50

000
ASUS45 KBOU 271607
RWRCO

WEATHER ROUNDUP FOR COLORADO
NATIONAL WEATHER SERVICE DENVER/BOULDER CO
1000 AM MDT WED MAY 27 2015

NOTE: "FAIR" INDICATES FEW OR NO CLOUDS BELOW 12000 FEET WITH NO
SIGNIFICANT WEATHER AND/OR OBSTRUCTIONS TO VISIBILITY.

COZ001>005-013-030-031-271700-
...NORTHWEST COLORADO...

CITY           SKY/WX    TMP DP  RH WIND       PRES   REMARKS
CRAIG          PTSUNNY   58  42  55 NW7       30.17F
HAYDEN         MOSUNNY   54  41  62 NW3       30.19S
MEEKER         SUNNY     58  43  57 CALM      30.19S
MOUNT WERNER   NOT AVBL
STEAMBOAT SPGS CLOUDY    52  42  69 CALM      30.20S
WALDEN         PTSUNNY   52  36  54 SW8       30.23S
$$

COZ006>008-011-271700-
...WEST CENTRAL VALLEYS...

CITY           SKY/WX    TMP DP  RH WIND       PRES   REMARKS
GRAND JUNCTION SUNNY     61  46  57 E7        30.14F
MONTROSE       SUNNY     60  47  61 N6        30.19S
EAGLE          MOSUNNY   57  43  58 W6        30.21F
RIFLE          SUNNY     57  45  64 N3        30.17F
DELTA          MOSUNNY   62  47  57 CALM      30.16F
NUCLA          NOT AVBL
$$

COZ017>023-064>068-271700-
...SOUTHWEST COLORADO...

CITY           SKY/WX    TMP DP  RH WIND       PRES   REMARKS
DURANGO        MOSUNNY   61  44  53 E3        30.23S
CORTEZ         SUNNY     63  40  42 CALM      30.17F
PAGOSA SPRINGS NOT AVBL
TELLURIDE      PTSUNNY   54  33  43 CALM      30.33S
WOLF CREEK PAS NOT AVBL
$$

COZ009-010-012-014-032>034-037-058>063-271700-
...CENTRAL COLORADO...

CITY           SKY/WX    TMP DP  RH WIND       PRES   REMARKS
ASPEN          PTSUNNY   55  39  54 VRB6      30.23
BUENA VISTA    NOT AVBL
COPPER MTN     MOSUNNY   41  28  60 W23G31    30.39S
BERTHOUD PASS  FAIR      30  23  74 W28G36    30.40R WCI  16
COTTONWOOD PAS MOSUNNY   55  30  38 W8        30.31F
GUNNISON       SUNNY     52  37  58 CALM      30.30F
KREMMLING      MOSUNNY   59  36  41 SW14G23   30.22S
LEADVILLE      CLOUDY    51  29  42 NW9G17    30.30S
SALIDA         PTSUNNY   63  35  35 SW8       30.29F
SUNLIGHT       PTSUNNY   43  36  75 CALM      30.39S
WILKERSON PASS MOSUNNY   39  30  70 SW10G18   30.39S
$$

COZ069>075-271700-
...SAN LUIS VALLEY/SANGRE DE CRISTO MOUNTAINS...

CITY           SKY/WX    TMP DP  RH WIND       PRES   REMARKS
ALAMOSA        SUNNY     57  38  48 CALM      30.26F
LA VETA PASS   MOSUNNY  N/A N/A N/A MISG      30.38R
SAGUACHE       SUNNY     54  39  58 SE5       30.28F
$$

COZ035-036-038>040-271700-
...NORTHERN COLORADO FRONT RANGE...

CITY           SKY/WX    TMP DP  RH WIND       PRES   REMARKS
DENVER INTL AP PTSUNNY   64  46  52 NW5       30.09S
DMNS CITY PARK   N/A     68  41  37 NE1G7     30.07S
AURORA         MOSUNNY   66  41  41 W5        30.09S
FRONT RANGE AP PTSUNNY   66  45  45 CALM      30.10S
ERIE MUNI ARPT MOSUNNY   64  48  56 CALM      30.07F
BOULDER MUN AP MOSUNNY   64  43  45 NE6       30.07F
CENTENNIAL     MOSUNNY   66  40  38 S7        30.09F
BROOMFIELD     PTSUNNY   64  45  48 CALM      30.09F
FORT COLLINS   MOSUNNY   64  52  63 N3        30.08F
LONGMONT       PTSUNNY   67  48  49 CALM      30.09S
$$

COZ041-046-047-076>085-087-088-271700-
...PIKES PEAK/PALMER DIVIDE AND SOUTHERN FOOTHILLS...

CITY           SKY/WX    TMP DP  RH WIND       PRES   REMARKS
COLO. SPRINGS  MOSUNNY   60  47  61 VRB3      30.15F
A. F. ACADEMY  MOSUNNY   59  46  60 SE7       30.15F
ELLICOTT       MOSUNNY  N/A N/A N/A SW13      30.14F
FALCON         MOSUNNY   59  43  54 SW6       30.18F
FORT CARSON    SUNNY     65  49  56 S12       30.11F
LIMON          SUNNY     63  50  62 S14       30.11F
MONUMENT HILL  SUNNY     63  36  36 SE16      30.17S
TRINIDAD       MOSUNNY   65  49  56 SE7       30.14F
$$

COZ042>045-048>051-090-091-271700-
...NORTHEAST COLORADO...

CITY           SKY/WX    TMP DP  RH WIND       PRES   REMARKS
GREELEY ARPT   SUNNY     61  54  77 E5        30.08S
AKRON          MOSUNNY   67  50  54 S14       30.07F
BURLINGTON     MOSUNNY   68  55  63 S15       30.09F
WRAY           PTSUNNY   68  56  65 SE9       30.08F
STERLING       MOSUNNY   63  55  77 CALM      30.04F
HOLYOKE        PTSUNNY   63  54  72 SE12      30.08F
FORT MORGAN    NOT AVBL
$$

COZ086-089-092>099-271700-
...SOUTHEAST COLORADO...

CITY           SKY/WX    TMP DP  RH WIND       PRES   REMARKS
PUEBLO         SUNNY     63  49  60 CALM      30.10F
LA JUNTA       SUNNY     66  53  63 VRB6      30.09F
LAMAR          MOSUNNY   74  56  53 S17G24    30.05F
SPRINGFIELD      N/A     70  56  61 S17       30.10F
$$



USA.gov is the U.S. government's official web portal to all federal, state and local government web resources and services.